Location: Asheville, NC
(35.6000°N, 82.5500°W)
Time: 15:01:07
(UTC-05:00)

Vanguard 3 - Pass Details

Date: 12 December 2017
Orbit: 508 x 3264 km, 33.4° (Epoch: 18 January)

Event Time Altitude Azimuth Distance (km) Brightness Sun altitude
Rises 12:49:19 0° 239° (WSW) 3,253 10.7 31.0°
Reaches altitude 10° 12:52:16 10° 230° (SW) 2,055 10.0 30.9°
Maximum altitude 12:56:16 34° 165° (SSE) 901 9.1 30.8°
Drops below altitude 10° 12:59:37 10° 98° (E) 1,710 8.9 30.7°
Sets 13:01:51 0° 88° (E) 2,614 9.7 30.6°
